Location: Days
(41.3591°N, 106.7339°W)
Time: 18:01:43
(UTC+00:00)

First-Move - Pass Details

Date: 30 June 2022
Orbit: 572 x 658 km, 97.6° (Epoch: 09 August)

Event Time Altitude Azimuth Distance (km) Brightness Sun altitude
Rises 10:33:24 0° 22° (NNE) 2,946 ? -10.2°
Reaches altitude 10° 10:35:46 10° 31° (NNE) 2,045 ? -9.9°
Maximum altitude 10:39:50 34° 97° (E) 1,076 ? -9.3°
Drops below altitude 10° 10:43:56 10° 162° (SSE) 2,060 ? -8.8°
Sets 10:46:19 0° 172° (S) 2,971 ? -8.4°
